Flag for U.S.A. Weather past 2 weeks in Canton, Ohio, U.S.A.

Now
29 °F

Light snow. Overcast.


Feels Like: 20 °F
Forecast: 28 / 33 °F
Wind: 9 mph from West

Location: Akron-Canton Regional Airport

Current Time: Dec 18, 2014 at 1:29:23 PM

Latest Report: Dec 18, 2014 at 12:51 PM


Visibility: 7 mi

Pressure: 30.20 "Hg

Humidity: 72%

Dew point: 21 °F

Location of CantonLocation

Historic Weather in Canton — Graph

°F

Canton temperature yesterday

Maximum temperature yesterday: 40 °F (at 12:51 AM)
Minimum temperature yesterday: 28 °F (at 8:51 PM)
Average temperature yesterday: 33 °F

Past Weeks' High & Low Weather Summary

 TemperatureHumidityPressure
High51 °F (Dec 15, 12:51 PM)93% (Dec 5, 5:51 PM)30.65 "Hg (Dec 5, 5:51 PM)
Low24 °F (Dec 4, 3:51 AM)32% (Dec 8, 1:51 PM)29.72 "Hg (Dec 16, 12:51 PM)
Average36 °F76%30.18 "Hg
* Reported Dec 3 11:51 AM — Dec 18 11:51 AM, Canton, Weather by CustomWeather, © 2014

Note: Actual official high and low records may vary slightly from our data, if they occured in-between our weather recording intervals... More about our weather records

Advertising

Canton weather history for previous 24 hours

 ConditionsComfort  
Time TempWeatherWind HumidityBarometerVisibility
11:51 AM
Dec 18
29 °FLight snow. Overcast.9 mph72%30.23 "Hg7 mi
10:51 AM29 °FLight snow. Overcast.8 mph75%30.25 "Hg5 mi
9:51 AM28 °FLight snow. Overcast.7 mph78%30.23 "Hg5 mi
8:51 AM28 °FLight snow. Overcast.6 mph75%30.23 "Hg7 mi
7:51 AM28 °FOvercast.10 mph75%30.22 "Hg10 mi
6:51 AM28 °FOvercast.7 mph75%30.22 "Hg10 mi
5:51 AM28 °FOvercast.7 mph72%30.22 "Hg10 mi
4:51 AM28 °FOvercast.8 mph69%30.20 "Hg10 mi
3:51 AM28 °FOvercast.8 mph72%30.22 "Hg10 mi
2:51 AM28 °FOvercast.13 mph72%30.22 "Hg10 mi
1:51 AM28 °FOvercast.12 mph69%30.20 "Hg10 mi
12:51 AM28 °FOvercast.17 mph66%30.19 "Hg10 mi
11:51 PM
Dec 17
28 °FOvercast.10 mph72%30.18 "Hg10 mi
10:51 PM28 °FOvercast.14 mph72%30.17 "Hg10 mi
9:51 PM28 °FLight snow. Overcast.16 mph78%30.17 "Hg6 mi
8:51 PM28 °FLight snow. Overcast.12 mph75%30.16 "Hg6 mi
7:51 PM29 °FLight snow. Overcast.14 mph72%30.16 "Hg8 mi
6:51 PM30 °FOvercast.15 mph69%30.14 "Hg10 mi
5:51 PM31 °FOvercast.14 mph73%30.12 "Hg10 mi
4:51 PM31 °FOvercast.10 mph73%30.11 "Hg10 mi
3:51 PM31 °FOvercast.13 mph69%30.11 "Hg10 mi
2:51 PM31 °FOvercast.16 mph73%30.10 "Hg10 mi
1:51 PM32 °FOvercast.13 mph73%30.09 "Hg10 mi
Weather by CustomWeather, © 2014

See weather overviewHow to use our weather pages